TimePST,TemperatureF,Dew PointF,Humidity,Sea Level PressureIn,VisibilityMPH,Wind Direction,Wind SpeedMPH,Gust SpeedMPH,PrecipitationIn,Events,Conditions,WindDirDegrees,DateUTC
12:04 AM,42.8,39.2,87,30.36,2.5,North,15.0,-,N/A,,Overcast,10,2013-02-02 08:04:00
12:12 AM,42.8,39.2,87,30.36,1.5,NNE,11.5,-,N/A,,Overcast,20,2013-02-02 08:12:00
12:19 AM,42.8,39.2,87,30.36,0.5,NNE,12.7,-,N/A,Fog,Fog,20,2013-02-02 08:19:00
12:48 AM,42.8,41.0,93,30.37,0.2,North,9.2,-,N/A,Fog,Fog,350,2013-02-02 08:48:00
12:53 AM,43.0,39.9,89,30.39,0.2,NNW,9.2,-,N/A,Fog,Fog,340,2013-02-02 08:53:00
1:53 AM,42.1,39.9,92,30.40,0.2,North,9.2,-,N/A,Fog,Fog,360,2013-02-02 09:53:00
2:53 AM,42.1,39.9,92,30.40,0.2,NNE,9.2,-,N/A,Fog,Fog,20,2013-02-02 10:53:00
3:53 AM,41.0,39.0,93,30.38,0.2,North,6.9,-,N/A,Fog,Fog,360,2013-02-02 11:53:00
4:53 AM,41.0,39.0,93,30.37,0.2,NNE,5.8,-,N/A,Fog,Fog,30,2013-02-02 12:53:00
5:53 AM,41.0,39.0,93,30.35,0.2,North,6.9,-,N/A,Fog,Fog,10,2013-02-02 13:53:00
6:09 AM,41.0,39.2,93,30.33,0.2,NNE,6.9,-,N/A,Fog,Fog,20,2013-02-02 14:09:00
6:53 AM,39.9,37.9,93,30.34,0.2,NNE,8.1,-,N/A,Fog,Fog,20,2013-02-02 14:53:00
7:02 AM,39.2,37.4,93,30.32,0.2,North,9.2,-,N/A,Fog,Fog,360,2013-02-02 15:02:00
7:33 AM,39.2,37.4,93,30.32,0.2,NNE,9.2,-,N/A,Fog,Fog,30,2013-02-02 15:33:00
7:43 AM,39.2,37.4,93,30.32,0.2,North,4.6,-,N/A,Fog,Fog,10,2013-02-02 15:43:00
7:53 AM,39.9,37.9,93,30.35,0.2,NNE,8.1,-,N/A,Fog,Fog,20,2013-02-02 15:53:00
8:02 AM,39.2,37.4,93,30.32,0.1,NNE,5.8,-,N/A,Fog,Fog,20,2013-02-02 16:02:00
8:53 AM,39.9,37.9,93,30.35,0.1,NNW,5.8,-,N/A,Fog,Fog,330,2013-02-02 16:53:00
9:53 AM,39.9,37.9,93,30.36,0.1,North,3.5,-,N/A,Fog,Fog,350,2013-02-02 17:53:00
10:38 AM,39.2,39.2,100,30.33,0.2,Calm,Calm,-,N/A,Fog,Fog,0,2013-02-02 18:38:00
10:45 AM,41.0,39.2,93,30.32,0.2,Variable,3.5,-,N/A,Fog,Fog,0,2013-02-02 18:45:00
10:53 AM,41.0,37.9,89,30.35,0.2,Calm,Calm,-,N/A,Fog,Fog,0,2013-02-02 18:53:00
11:47 AM,41.0,37.4,87,30.31,1.5,Calm,Calm,-,N/A,,Overcast,0,2013-02-02 19:47:00
11:53 AM,41.0,39.0,93,30.34,2.0,Calm,Calm,-,N/A,,Overcast,0,2013-02-02 19:53:00
12:16 PM,41.0,39.2,93,30.30,0.5,Calm,Calm,-,N/A,,Overcast,0,2013-02-02 20:16:00
12:53 PM,41.0,37.9,89,30.32,0.5,Calm,Calm,-,N/A,,Overcast,0,2013-02-02 20:53:00
1:04 PM,41.0,39.2,93,30.30,2.0,Calm,Calm,-,N/A,,Overcast,0,2013-02-02 21:04:00
1:24 PM,42.8,39.2,87,30.29,2.0,Calm,Calm,-,N/A,,Overcast,0,2013-02-02 21:24:00
1:53 PM,42.1,39.0,89,30.32,2.0,Calm,Calm,-,N/A,,Overcast,0,2013-02-02 21:53:00
2:53 PM,43.0,39.0,86,30.31,2.0,Calm,Calm,-,N/A,,Overcast,0,2013-02-02 22:53:00
3:53 PM,42.1,37.9,85,30.30,2.0,SSE,8.1,-,N/A,,Overcast,150,2013-02-02 23:53:00
4:53 PM,41.0,37.9,89,30.30,2.0,SSE,6.9,-,N/A,,Overcast,160,2013-02-03 00:53:00
5:03 PM,41.0,37.4,87,30.26,0.5,SE,6.9,-,N/A,,Overcast,140,2013-02-03 01:03:00
5:53 PM,39.9,37.0,89,30.28,0.5,SE,6.9,-,N/A,Fog,Fog,130,2013-02-03 01:53:00
6:33 PM,39.2,37.4,93,30.27,0.1,Calm,Calm,-,N/A,Fog,Fog,0,2013-02-03 02:33:00
6:53 PM,39.9,37.9,93,30.30,0.1,Calm,Calm,-,N/A,Fog,Fog,0,2013-02-03 02:53:00
7:53 PM,39.9,37.0,89,30.29,0.1,ESE,4.6,-,N/A,Fog,Fog,110,2013-02-03 03:53:00
8:12 PM,39.2,37.4,93,30.27,0.1,North,3.5,-,N/A,Fog,Fog,360,2013-02-03 04:12:00
8:53 PM,39.0,37.0,93,30.30,0.1,Calm,Calm,-,N/A,Fog,Fog,0,2013-02-03 04:53:00
9:53 PM,37.9,37.0,97,30.30,0.1,South,3.5,-,N/A,Fog,Fog,190,2013-02-03 05:53:00
10:53 PM,37.9,36.0,93,30.30,0.1,South,4.6,-,N/A,Fog,Fog,170,2013-02-03 06:53:00
11:53 PM,37.9,36.0,93,30.32,0.1,Calm,Calm,-,N/A,Fog,Fog,0,2013-02-03 07:53:00